This is the latest recevied weather packets stored in our database for station/object K3BAY-1. If no packets are shown the sender has not sent any weather packets the latest 10 day(s).
| Time | Temp. | Humidity | Pressure | Rain* | Wind** | Luminosity | Snow |
|---|---|---|---|---|---|---|---|
| 1777777587 | 11.67° C | 61% | 1011.1 hPa | 0 mm | - | 0 W/m² | - |
| 1777777284 | 11.67° C | 58% | 1011.1 hPa | 0 mm | - | 0 W/m² | - |
| 1777776981 | 12.22° C | 62% | 1011.5 hPa | 0 mm | - | 0 W/m² | - |
| 1777776679 | 12.22° C | 59% | 1011.5 hPa | 0 mm | - | 0 W/m² | - |
| 1777776375 | 12.22° C | 58% | 1011.5 hPa | 0 mm | - | 0 W/m² | - |
| 1777776072 | 12.22° C | 59% | 1011.1 hPa | 0 mm | - | 0 W/m² | - |
| 1777775769 | 12.78° C | 58% | 1011.1 hPa | 0 mm | - | 0 W/m² | - |
| 1777775467 | 12.78° C | 59% | 1010.8 hPa | 0 mm | - | 0 W/m² | - |
| 1777775162 | 12.78° C | 58% | 1010.4 hPa | 0 mm | - | 0 W/m² | - |
| 1777774856 | 12.78° C | 58% | 1010.4 hPa | 0 mm | - | 0 W/m² | - |
| 1777774554 | 12.78° C | 57% | 1010.4 hPa | 0 mm | - | 0 W/m² | - |
| 1777774251 | 13.33° C | 55% | 1010.4 hPa | 0 mm | - | 0 W/m² | - |
| 1777773948 | 13.33° C | 54% | 1010.4 hPa | 0 mm | - | 0 W/m² | - |
| 1777773039 | 13.33° C | 54% | 1010.4 hPa | 0 mm | - | 0 W/m² | - |
| 1777772130 | 13.33° C | 58% | 1010.4 hPa | 0 mm | - | 0 W/m² | - |
| 1777771525 | 13.33° C | 60% | 1010.8 hPa | 0 mm | - | 0 W/m² | - |
| 1777769403 | 13.33° C | 52% | 1010.8 hPa | 0 mm | - | 0 W/m² | - |
| 1777767281 | 13.89° C | 51% | 1010.8 hPa | 0 mm | - | 0 W/m² | - |
| 1777766675 | 13.89° C | 55% | 1011.1 hPa | 0 mm | - | 0 W/m² | - |
| 1777765463 | 13.89° C | 49% | 1010.8 hPa | 0 mm | - | 4 W/m² | - |
| 1777764553 | 13.89° C | 49% | 1011.1 hPa | 0 mm | - | 8 W/m² | - |
| 1777762130 | 15° C | 45% | 1011.5 hPa | 0 mm | - | 32 W/m² | - |
| 1777761523 | 15.56° C | 42% | 1011.5 hPa | 0 mm | - | 58 W/m² | - |
| 1777761221 | 15.56° C | 43% | 1011.5 hPa | 0 mm | - | 99 W/m² | - |
| 1777760918 | 15.56° C | 40% | 1011.5 hPa | 0 mm | - | 136 W/m² | - |
* Rain latest hour (hover to see other rain measurements)
** Current wind speed in m/s (hover to see current wind gust speed)